EW2825 Weather Reports


time (UTC)temp
C
wind
direction
speed
KPH
gust
KPH
rain 1hr
cm
rain 24hr
cm
rain mn
cm
humidity
%
barometer
mb
20260504194523 17 355 3.2 0.0 0.00 0.00 0.00 48 1001.7
20260504193020 17 350 3.2 0.0 0.00 0.00 0.00 48 1001.8
20260504191514 16 107 3.2 0.0 0.00 0.00 0.00 53 1001.9
20260504190015 16 32 3.2 0.0 0.00 0.00 0.00 53 1002.3
20260504184513 16 283 6.4 0.0 0.00 0.00 0.00 52 1002.5
20260504183012 15 338 8.0 0.0 0.00 0.00 0.00 53 1002.6
20260504181512 15 296 9.7 0.0 0.00 0.00 0.00 54 1003.0
20260504180008 14 313 4.8 0.0 0.00 0.00 0.00 58 1003.2
20260504174506 13 350 4.8 0.0 0.00 0.00 0.00 65 1003.6
20260504173005 12 338 4.8 0.0 0.00 0.00 0.00 65 1003.6
20260504171504 12 49 3.2 0.0 0.00 0.00 0.00 64 1003.4
20260504150112 14 27 3.2 0.0 0.00 0.00 0.00 53 1002.2
20260504081508 0 254 0.0 0.0 0.00 0.00 0.00 94 1005.1
20260504044602 0 254 0.0 0.0 0.00 0.00 0.00 89 1005.1
20260504043057 0 254 0.0 0.0 0.00 0.00 0.00 90 1005.1
20260504041552 0 254 0.0 0.0 0.00 0.00 0.00 90 1005.0
20260504040104 0 254 0.0 0.0 0.00 0.00 0.00 88 1005.0
20260504034609 1 254 1.6 0.0 0.00 0.00 0.00 87 1004.8
20260504033043 1 254 0.0 0.0 0.00 0.00 0.00 86 1004.6
20260504031541 1 254 0.0 0.0 0.00 0.00 0.00 85 1004.6
20260504030046 2 254 0.0 0.0 0.00 0.00 0.28 82 1004.6
20260504024536 2 254 0.0 0.0 0.00 0.00 0.28 83 1004.6
20260504023034 2 254 0.0 0.0 0.00 0.00 0.28 81 1004.7
20260504021529 3 254 0.0 0.0 0.00 0.00 0.28 77 1004.6
20260504020029 3 254 0.0 0.0 0.00 0.00 0.28 74 1004.6
20260504014528 3 254 0.0 0.0 0.00 0.00 0.28 72 1004.8
20260504013036 3 254 0.0 0.0 0.00 0.00 0.28 74 1004.7
20260504011527 5 254 1.6 0.0 0.00 0.00 0.28 71 1004.5
20260504010027 5 281 0.0 0.0 0.00 0.00 0.28 67 1004.5
20260504004526 5 281 1.6 0.0 0.00 0.00 0.28 70 1004.4
20260504003026 5 281 1.6 0.0 0.00 0.00 0.28 70 1004.2
20260504001525 5 86 1.6 0.0 0.00 0.00 0.28 66 1004.0
20260504000025 6 252 3.2 0.0 0.00 0.00 0.28 61 1003.9
20260503234526 6 319 1.6 0.0 0.00 0.00 0.28 62 1003.8
20260503233024 6 348 1.6 0.0 0.00 0.00 0.28 61 1003.8
20260503231524 6 5 1.6 0.0 0.00 0.00 0.28 61 1003.8
20260503230023 6 57 3.2 0.0 0.00 0.00 0.28 60 1003.8
20260503224523 7 290 3.2 0.0 0.00 0.00 0.28 60 1003.6
20260503223022 7 106 3.2 0.0 0.00 0.00 0.28 57 1003.5
20260503221521 7 307 3.2 0.0 0.00 0.00 0.25 59 1003.3
20260503220022 7 344 3.2 0.0 0.00 0.00 0.25 56 1003.3
20260503214521 7 321 3.2 0.0 0.00 0.00 0.25 53 1003.2
20260503213021 8 44 3.2 0.0 0.00 0.00 0.25 53 1003.2
20260503211532 8 60 4.8 0.0 0.00 0.00 0.25 56 1003.2
20260503210018 7 309 4.8 0.0 0.00 0.00 0.25 59 1003.2
20260503204518 8 106 3.2 0.0 0.00 0.00 0.25 57 1003.0
20260503203017 8 155 3.2 0.0 0.00 0.00 0.25 57 1002.7
20260503201516 7 54 1.6 0.0 0.00 0.00 0.25 63 1003.1
20260503200016 7 355 4.8 0.0 0.00 0.00 0.25 60 1003.2